Observations

BIA Manual Entry


Date Temp Humidity Rainfall Dew Point Wind Direction Wind Speed Wind Pressure Condition Visibility
2025-03-10 02:01:50 27 95 0.0 26 220 8 1010 Cloudy 10 km
2025-03-10 01:00:29 27 94 0.0 26 220 4 1011 Cloudy 10 km
2025-03-10 00:01:55 27 94 0.0 26 080 2 1011 Cloudy 10 km
2025-03-09 23:01:50 28 92 0.01 26 130 2 1012 Night Shower 10 km
2025-03-09 21:59:59 28 91 0.0 26 030 4 1011 Cloudy 10 km
2025-03-09 20:59:19 28 88 0.00 26 360 3.8 1011 Partly Cloudy (Night) 10 km
2025-03-09 20:04:08 28 88 0.00 26 360 5.7 1009 Partly Cloudy (Night) 10 km
2025-03-09 19:02:47 28 86 0.00 26 010 7.6 1008 Partly Cloudy (Night) 10 km
2025-03-09 18:01:00 29 83 0.00 25 360 9.5 1008 Partly Cloudy (Day) 10 km
2025-03-09 17:00:55 30 77 0.00 25 340 17.1 1008 Partly Cloudy (Day) 15 km
2025-03-09 16:00:11 30 73 0.00 25 360 13.3 1008 Partly Cloudy (Day) 15 km
2025-03-09 15:02:29 30 73 0.00 25 360 15.2 1008 Partly Cloudy (Day) 20 km
2025-03-09 14:02:33 31 70 0.00 25 360 13.3 1009 Partly Cloudy (Day) 20 km
2025-03-09 12:59:53 31 70 25 020 15.2 1010 Partly Cloudy (Day) 20 KM
2025-03-09 12:00:37 31 68 24 010 15.2 1010 Partly Cloudy (Day) 20 KM
2025-03-09 10:58:31 30 72 24 020 13.3 1010 Partly Cloudy (Day) 20 KM
2025-03-09 09:59:14 29 75 24 030 13.3 1011 Partly Cloudy (Day) 20 KM
2025-03-09 08:59:27 28 84 25 070 7.6 1011 Partly Cloudy (Day) 20 KM
2025-03-09 08:58:57 28 84 070 8 Partly Cloudy (Day)
2025-03-09 07:58:32 26 93 24 090 3.8 1011 Cloudy 15 KM
2025-03-09 06:58:43 25 96 24 070 1.9 1010 Mist 10 KM
2025-03-09 05:57:34 25 97 24 050 3.8 1010 Mist 10 KM
2025-03-09 04:58:19 25 96 25 050 5.7 1009 Mist 10 KM
2025-03-09 04:04:00 25 97 25 030 3.8 1009 Partly Cloudy (Night) 10 KM
2025-03-09 03:19:02 25 97 25 080 1.9 1009 Partly Cloudy (Night) 10 KM